GFSNW_sfc_temp_000.txt.gz
Temp
56 55 55 55 54 55 60 73 63 75 76 66 67 62 65 55 66 69 66 66 63 60 60 57 58 57 60 65 64 57 60 52 43 50 63 67 62 57 57 40 41 44 41 42
56 55 55 55 54 54 67 72 71 78 73 54 51 65 63 66 65 64 64 61 63 64 59 52 58 59 63 65 62 56 58 50 41 49 58 61 56 59 59 55 42 39 33 41
56 56 55 55 54 54 66 72 53 66 72 72 65 62 61 59 65 63 65 63 64 61 58 62 55 58 63 63 62 53 56 52 45 39 46 54 48 54 56 53 41 43 44 49
56 56 55 55 54 54 66 72 63 65 56 61 65 65 64 60 58 64 65 62 61 59 47 51 54 59 61 63 55 61 57 44 49 51 53 52 50 50 53 51 51 43 48 52
55 56 55 54 54 53 71 63 64 68 65 65 64 56 61 60 61 62 60 58 62 61 55 55 52 57 56 55 61 58 56 40 41 39 49 50 46 49 51 52 53 53 54 53
55 57 55 54 53 56 73 73 72 68 54 60 57 59 61 61 63 62 64 62 60 49 58 62 63 62 61 60 56 52 51 40 35 35 44 40 34 43 49 53 56 55 45 53
54 52 52 54 53 54 70 70 70 52 51 57 59 62 63 62 63 59 63 64 51 63 70 66 61 59 59 59 59 61 46 37 35 33 33 28 49 60 57 53 56 58 57 58
54 51 52 55 54 54 68 72 68 57 37 58 60 61 61 63 63 61 62 64 64 66 61 46 37 43 37 41 57 59 59 39 36 32 35 41 47 53 51 48 48 58 55 55
52 52 53 54 53 54 63 71 70 65 41 48 63 60 62 55 54 56 59 67 68 63 49 40 33 36 41 43 49 57 50 41 40 37 31 29 44 56 61 59 40 53 53 51
52 52 52 52 53 54 61 68 70 66 50 61 62 58 58 63 58 54 58 59 49 60 41 35 35 37 50 40 34 35 38 37 34 35 32 39 53 59 59 37 37 49 50 50
52 51 51 51 51 52 58 65 69 63 55 60 64 65 60 61 60 51 57 54 54 45 37 36 39 35 42 43 47 43 40 36 34 33 32 31 60 57 39 48 53 52 50 49
51 51 51 51 51 52 53 60 66 67 57 60 64 65 68 67 66 59 57 53 55 52 44 40 39 35 36 35 34 51 38 44 41 44 43 55 59 56 58 57 52 52 51 54
50 50 51 51 51 52 54 60 61 57 41 51 55 57 66 70 67 70 52 55 60 57 59 48 37 34 42 34 36 37 47 53 43 43 50 54 55 58 58 58 53 54 55 53
50 50 50 50 51 51 52 55 61 55 44 34 45 63 60 68 68 66 65 61 61 59 55 41 36 34 43 36 41 40 46 48 43 42 49 53 54 56 57 55 56 53 53 51
49 50 50 50 50 51 52 54 57 57 50 38 41 52 63 65 65 63 63 60 57 52 44 36 36 43 41 43 39 38 47 44 40 39 51 49 51 57 58 54 51 53 55 54
49 49 50 50 50 50 50 45 53 54 53 40 34 47 50 60 62 60 59 59 56 53 48 39 44 49 40 34 37 48 55 56 57 51 58 57 58 58 57 52 50 56 55 55
48 49 49 50 49 51 46 43 48 52 53 35 36 40 46 54 55 57 56 57 52 50 45 40 39 40 43 34 35 49 53 56 57 59 57 49 53 51 55 56 57 57 56 53
48 49 49 49 49 48 45 47 49 50 44 38 35 34 37 50 43 41 48 43 42 42 41 39 38 43 38 35 47 53 56 58 59 55 56 55 55 56 56 57 55 52 49 47
48 48 49 48 46 41 43 48 48 48 43 35 32 33 33 49 41 39 38 40 33 41 36 39 40 40 36 44 50 54 56 55 52 53 54 54 52 52 53 53 52 48 46 42
49 50 44 36 41 47 47 44 38 37 36 36 32 40 36 48 38 36 36 36 33 32 37 47 37 39 50 53 55 56 54 54 54 46 45 46 46 50 50 50 50 46 41 40
50 43 38 45 47 45 42 36 34 34 33 34 37 38 39 46 35 34 36 33 35 31 39 38 37 37 46 55 55 55 55 55 54 54 53 53 51 50 47 44 42 38 37 36
48 48 50 47 44 40 34 33 36 34 35 38 36 39 41 39 46 38 38 34 36 30 43 33 32 43 52 52 52 53 55 54 52 53 51 51 51 48 42 42 39 36 35 32
53 46 38 41 38 31 29 29 32 34 37 35 36 35 38 39 38 35 34 30 31 37 32 33 39 48 51 52 53 52 52 45 42 48 49 49 47 43 35 34 35 34 33 34
43 35 30 33 31 34 37 37 33 34 35 36 37 35 36 36 32 33 29 36 36 29 29 33 42 46 49 50 48 47 46 38 38 40 41 39 36 34 34 34 32 32 32 32
38 36 30 32 39 36 34 36 37 36 39 39 37 37 38 34 31 34 33 29 28 32 33 40 43 44 46 45 46 45 37 35 36 41 38 34 34 33 33 34 33 32 32 31
39 34 32 36 34 32 32 33 34 39 39 39 38 34 31 30 32 30 28 29 29 35 39 41 45 44 43 42 41 39 40 38 39 40 38 37 34 34 35 34 33 32 32 32
30 33 37 34 34 33 34 34 36 44 36 32 36 29 29 38 31 30 36 32 36 38 41 44 44 43 42 43 40 36 38 39 39 39 38 37 36 34 33 32 32 33 32 32

GFSNW_sfc_temp_003.txt.gz
Temp
56 55 55 55 54 55 59 59 53 63 64 52 49 46 58 56 62 64 61 59 57 54 54 51 52 51 54 59 58 50 52 44 32 45 56 59 55 51 52 35 34 33 30 37
56 55 55 55 54 54 51 54 55 63 63 39 38 56 59 59 60 60 60 56 58 58 52 43 52 53 58 59 55 49 51 38 30 38 47 51 49 52 50 44 35 34 29 36
55 56 55 55 54 54 53 55 41 53 56 56 54 53 55 54 60 59 61 59 59 55 52 54 48 52 57 58 57 53 52 45 37 31 38 46 42 47 49 44 26 35 36 42
55 55 55 54 54 54 55 55 49 54 41 47 53 54 58 55 52 59 60 56 56 53 41 45 46 53 55 56 51 54 51 36 42 45 47 49 47 46 46 43 43 36 42 44
54 55 54 53 53 53 58 51 48 53 51 56 54 49 53 55 57 57 55 53 55 54 45 49 43 49 48 47 52 48 50 35 37 37 45 46 40 42 45 45 44 45 46 45
54 54 51 52 53 54 56 57 57 52 45 47 41 43 54 56 57 55 59 56 52 43 51 53 52 52 52 51 48 42 42 34 31 36 40 37 29 39 42 45 48 46 36 43
54 52 51 53 53 53 55 56 55 41 38 38 46 56 58 56 55 52 58 57 45 54 60 55 49 48 49 47 49 50 36 31 30 32 30 27 42 53 52 47 48 49 46 46
54 51 51 54 53 53 54 58 54 42 34 42 48 53 53 55 54 51 54 57 58 57 49 36 34 33 35 40 49 45 46 33 32 32 30 35 41 47 42 41 43 47 46 49
53 53 52 53 53 53 55 58 58 47 37 40 56 51 52 40 40 42 50 58 57 55 35 35 31 23 33 35 43 48 42 37 33 28 25 26 37 48 53 52 36 46 48 45
52 52 52 52 52 53 54 56 60 54 42 49 54 46 45 52 45 41 44 48 44 50 35 33 34 30 40 30 28 30 30 27 26 20 28 33 45 51 51 31 37 45 45 46
51 51 51 52 52 52 54 55 60 54 44 49 56 57 51 51 46 37 46 44 41 36 33 34 32 34 32 31 39 33 31 27 29 29 31 26 51 48 36 42 44 49 45 45
51 51 51 51 51 52 52 52 59 58 50 50 57 58 58 58 56 51 47 45 46 42 34 33 34 33 34 33 32 44 34 37 31 35 33 45 51 49 51 53 50 46 45 48
50 50 51 51 51 52 53 53 55 52 40 47 48 50 58 63 61 61 43 41 52 48 49 39 36 34 36 33 34 34 43 47 38 36 45 49 50 53 54 53 48 51 49 47
50 50 50 50 51 51 52 52 55 52 43 34 43 56 55 63 61 60 58 56 55 52 46 36 34 34 42 35 39 38 42 42 39 39 46 48 50 49 51 51 49 48 48 48
49 49 50 50 51 51 51 52 54 55 49 37 38 48 56 60 59 58 58 54 51 43 38 34 35 37 38 36 36 35 45 43 38 37 48 46 48 49 51 49 47 47 47 47
49 50 50 50 50 50 50 44 50 54 53 40 35 46 47 52 55 54 54 53 50 48 42 36 40 46 40 33 36 45 51 51 51 46 51 51 49 51 52 50 50 51 50 47
49 49 49 50 49 51 47 43 48 52 52 36 35 36 42 46 49 49 48 50 47 46 42 38 38 39 42 33 36 47 50 50 51 53 52 47 47 44 51 52 52 52 51 48
48 49 49 49 50 49 45 47 49 51 45 38 35 34 35 45 37 35 40 36 39 41 40 37 36 39 36 33 43 48 50 51 52 52 51 49 49 49 51 52 51 48 45 43
49 49 49 47 45 41 43 48 48 47 43 36 33 33 33 44 38 36 36 38 33 38 34 36 38 34 34 39 43 48 49 46 46 49 49 49 47 47 47 47 47 44 42 40
49 47 42 35 40 48 47 44 37 36 35 35 33 36 34 42 34 33 34 33 32 31 34 38 33 34 45 48 50 51 47 48 48 39 38 41 41 43 44 43 42 40 37 37
45 38 35 42 47 44 39 33 32 33 31 32 34 35 34 40 33 33 34 32 32 28 27 27 24 28 40 47 47 48 48 50 48 46 47 47 45 44 41 36 35 32 31 33
45 44 45 43 40 35 33 32 33 31 29 33 33 35 38 35 40 33 33 30 30 24 30 26 26 31 45 45 45 46 45 44 44 45 43 43 44 40 36 34 33 30 31 29
47 40 34 37 34 30 26 24 30 28 33 34 34 33 34 35 35 32 32 28 28 28 27 25 27 38 43 43 43 43 43 37 36 40 40 40 39 38 30 30 27 33 32 29
33 31 23 25 25 24 29 30 32 33 33 34 33 33 31 32 30 31 26 26 27 20 16 20 27 36 41 42 41 41 40 33 33 34 34 32 30 29 27 24 32 31 28 30
31 29 21 22 29 32 32 33 33 33 35 34 33 32 31 24 23 23 22 18 24 20 19 23 29 36 38 38 40 40 31 27 28 34 31 30 29 33 34 34 33 31 30 29
31 28 23 27 26 30 31 32 33 35 34 32 30 26 21 20 21 17 18 17 18 21 24 27 30 35 36 37 35 35 34 34 34 34 32 32 27 32 34 34 33 33 31 28
26 23 30 32 30 32 31 32 32 36 29 22 23 18 21 25 17 17 25 20 22 24 26 28 34 35 35 35 35 32 32 34 33 33 32 32 29 29 31 32 32 31 29 29

GFSNW_sfc_temp_006.txt.gz
Temp
54 55 55 54 53 54 56 55 48 61 61 51 44 45 55 55 59 61 58 56 53 50 50 48 48 48 51 56 54 47 49 40 32 43 51 54 49 45 44 29 33 31 29 36
54 54 54 54 53 53 52 52 52 60 61 38 35 52 56 56 57 56 56 53 55 54 49 42 49 50 56 56 53 48 48 36 29 37 45 48 45 48 46 41 32 30 23 31
54 54 54 54 53 53 53 51 41 49 52 50 50 50 51 52 57 56 58 56 56 52 48 51 45 49 54 54 54 52 50 42 36 30 37 41 39 45 47 39 24 33 36 39
54 54 53 52 53 53 55 50 46 50 39 45 49 51 53 51 50 56 57 53 52 49 40 43 42 48 49 53 51 50 47 36 39 41 44 44 44 43 44 40 40 31 37 39
53 53 50 51 53 53 54 49 48 49 46 52 51 44 50 51 54 54 51 49 50 50 43 45 40 46 44 44 48 44 46 34 35 37 42 42 38 43 42 41 42 40 41 41
53 51 50 52 52 54 52 52 52 50 42 43 39 40 50 52 54 53 56 53 49 41 48 51 51 51 51 50 45 39 39 32 28 33 35 34 32 37 39 42 44 41 33 40
53 50 50 52 52 52 53 52 49 41 36 34 42 52 54 52 52 49 54 53 45 53 56 52 49 46 45 44 45 47 33 30 29 27 31 26 41 47 47 43 44 45 43 44
53 50 51 52 52 52 54 53 51 41 34 38 44 49 50 50 50 48 51 53 55 53 45 36 32 32 34 37 46 43 43 34 30 27 29 34 40 45 40 37 39 45 43 45
52 52 52 53 52 52 54 54 52 46 37 39 52 48 48 39 37 41 47 54 54 47 35 30 22 22 31 34 40 44 39 33 29 29 27 26 36 45 49 47 32 46 45 43
52 52 52 53 52 53 54 53 56 50 39 47 51 44 43 49 41 39 40 46 42 45 35 29 29 27 37 29 25 27 27 31 25 19 25 28 42 47 49 28 34 42 45 46
51 51 51 51 52 52 54 54 56 52 43 47 53 55 50 48 44 36 44 43 39 35 33 31 29 32 31 29 37 33 32 27 29 28 26 27 47 47 37 41 42 47 48 45
50 51 51 51 52 52 53 51 56 55 48 49 54 55 57 56 54 48 44 44 43 39 34 34 29 32 33 28 32 40 34 36 31 33 32 43 46 48 47 49 48 46 46 47
50 50 50 51 51 52 52 51 53 49 40 45 47 50 55 60 57 57 42 38 49 44 44 36 35 33 35 33 34 34 41 45 35 36 43 46 47 52 52 49 45 48 47 44
50 50 50 50 50 51 52 50 52 49 42 34 43 54 53 59 58 56 54 54 52 51 45 36 34 34 41 35 40 37 42 42 38 39 44 47 48 48 48 50 48 47 47 46
49 49 50 50 50 51 51 51 52 53 48 37 39 47 54 57 58 56 55 52 48 39 37 34 35 36 37 35 35 35 43 43 37 37 47 45 47 49 49 46 44 43 42 43
49 49 50 50 50 51 50 45 49 52 54 40 35 46 45 50 52 52 50 50 47 46 40 35 38 45 40 34 34 45 48 51 52 46 51 48 49 47 47 45 44 46 47 48
49 49 49 49 49 51 47 44 48 52 52 37 36 36 40 44 47 45 45 47 45 45 42 37 38 39 42 33 36 47 50 49 52 53 48 43 44 42 46 47 49 48 48 47
48 49 49 49 49 49 45 47 49 51 46 39 35 35 36 44 36 34 39 36 38 41 40 37 36 38 35 34 46 46 47 49 49 48 46 45 45 47 46 48 48 45 42 42
48 48 49 47 45 41 43 47 47 46 44 36 33 33 33 43 38 36 35 36 33 37 33 35 37 33 34 39 41 43 45 43 45 45 44 45 43 43 45 45 43 41 39 39
48 47 42 35 39 48 47 44 38 37 35 36 33 36 34 42 34 33 33 33 32 30 33 38 33 36 45 47 48 48 44 44 44 39 36 38 38 39 39 39 39 36 35 35
45 38 35 42 47 43 38 33 33 33 32 32 34 34 34 39 34 33 33 32 32 27 27 32 24 29 35 43 42 43 43 42 43 43 43 41 41 38 36 34 34 31 30 30
44 43 45 43 40 35 33 31 31 31 29 32 32 34 37 35 39 33 32 29 30 25 29 26 27 28 38 39 39 39 40 43 43 42 41 40 39 37 34 32 31 29 28 29
45 39 35 37 33 30 27 26 29 28 32 34 33 33 34 34 34 32 28 27 25 24 26 27 24 34 39 40 40 41 42 39 36 41 41 39 37 35 29 30 29 25 28 31
33 30 27 28 23 25 26 28 30 33 33 33 33 32 31 31 24 30 26 25 23 22 22 18 26 33 36 38 39 39 39 33 32 35 35 32 30 29 29 34 33 31 32 32
29 29 22 23 29 30 32 33 33 33 34 33 32 30 30 23 20 19 21 17 22 25 18 21 27 33 34 36 37 37 31 31 30 34 30 29 28 27 29 31 33 30 30 32
28 27 21 25 29 29 31 32 32 34 32 28 28 23 20 20 18 16 14 15 15 19 19 24 28 33 34 34 33 33 33 32 33 34 33 32 29 31 30 32 34 30 33 32
23 20 29 28 27 23 31 28 32 35 32 20 20 17 21 22 12 13 22 17 20 22 25 28 31 33 33 33 32 31 32 34 33 34 33 32 32 27 30 30 31 28 31 31

GFSNW_sfc_temp_009.txt.gz
Temp
54 54 54 54 53 53 56 53 48 59 58 50 41 43 52 53 55 58 55 53 51 48 48 45 45 45 49 53 51 46 46 38 31 40 49 50 47 43 41 32 31 29 25 33
54 54 54 53 53 53 54 51 50 58 59 38 34 49 53 54 54 53 53 51 52 52 46 41 46 47 53 54 51 45 46 35 28 37 43 46 42 43 42 36 31 30 25 31
54 54 52 51 52 53 54 50 41 48 49 47 49 48 48 50 54 54 55 52 53 50 46 48 43 46 51 52 52 50 49 39 35 29 36 40 38 41 42 39 28 30 34 39
53 52 50 51 52 52 55 48 44 48 38 43 47 49 50 49 48 54 54 50 49 47 38 40 39 45 48 50 50 48 45 36 37 39 41 41 42 41 42 38 38 33 37 37
52 50 50 52 53 53 52 48 46 46 45 49 48 43 47 49 50 51 48 47 48 48 42 44 39 44 42 43 46 42 43 32 34 34 39 40 37 40 40 40 39 37 37 37
51 49 49 51 52 54 51 49 49 48 39 40 38 39 48 50 52 51 53 51 46 39 47 49 49 50 49 47 43 39 38 31 28 27 34 32 29 34 37 39 41 40 32 39
50 49 49 51 52 53 52 50 48 41 35 32 41 48 50 49 49 48 51 51 44 50 53 50 48 45 43 41 42 45 32 30 28 23 32 23 40 44 45 41 43 43 42 42
50 49 50 51 52 52 53 51 49 41 33 36 42 48 49 48 48 46 49 50 52 50 45 35 32 31 34 34 41 39 39 33 29 28 27 32 40 43 38 36 38 44 42 42
52 52 52 52 52 52 54 52 48 45 37 39 50 47 46 37 36 38 44 51 50 45 31 30 24 24 30 33 37 40 36 31 28 29 26 24 35 43 46 44 31 43 43 43
52 52 52 52 52 52 53 53 52 49 38 45 49 42 42 46 39 38 37 43 41 43 33 29 23 26 35 28 25 27 27 30 26 26 25 29 40 45 45 30 34 42 45 46
51 52 52 52 52 52 53 51 53 50 41 46 51 53 48 46 42 36 43 41 37 36 33 27 28 21 30 29 34 31 31 28 24 27 26 23 45 45 37 42 42 44 44 42
50 51 51 51 52 53 54 50 54 53 48 49 52 54 54 55 53 46 42 43 41 38 34 33 26 29 31 32 32 38 33 36 31 33 33 42 45 46 46 46 43 42 41 45
50 50 51 51 51 52 53 50 51 49 40 45 47 49 53 57 56 55 42 36 46 41 43 35 34 34 34 32 34 35 40 44 34 36 43 45 47 50 52 49 44 46 46 44
49 49 50 50 50 51 52 50 50 48 41 34 41 51 51 56 56 54 53 51 49 46 40 34 34 34 41 34 39 36 42 41 37 39 45 45 47 48 47 48 45 43 43 42
50 50 50 50 51 51 51 51 53 53 48 37 39 46 52 54 53 52 51 50 46 39 37 34 35 35 37 35 35 35 43 41 37 37 47 45 48 46 44 43 42 43 42 42
49 49 50 50 50 51 51 46 51 52 53 40 35 45 44 48 49 49 48 48 48 43 40 35 38 44 40 33 34 45 48 50 50 45 50 48 46 44 45 43 43 45 44 44
49 49 49 49 49 51 48 45 47 50 52 37 36 36 39 42 43 43 43 44 43 44 40 37 39 41 42 33 36 46 48 47 49 50 48 43 42 40 45 45 45 45 45 45
48 49 49 49 49 49 46 47 49 50 46 39 35 35 36 43 36 34 39 36 37 39 40 36 35 36 36 34 43 45 45 45 46 44 44 43 43 43 43 45 44 42 40 40
48 48 48 47 46 42 44 48 48 46 45 36 33 33 33 42 37 35 34 36 33 36 33 35 37 34 34 39 41 41 42 41 41 42 43 44 40 42 42 42 39 37 36 35
48 47 43 36 39 47 47 44 39 38 36 36 33 36 34 41 34 33 34 33 32 31 33 38 33 33 41 41 41 41 40 41 41 36 37 38 37 36 36 36 36 34 32 31
44 37 35 42 47 43 37 33 34 34 33 33 34 34 34 39 34 33 33 32 32 27 25 31 28 28 34 37 37 38 39 40 40 40 40 39 39 37 35 33 33 31 30 30
44 42 45 42 40 35 34 32 32 32 31 33 32 34 36 34 39 33 32 29 29 24 29 28 23 29 36 39 39 40 41 43 43 42 41 42 40 38 35 32 32 29 28 28
44 39 35 37 33 30 30 27 29 28 31 33 33 32 33 34 35 31 28 25 23 26 24 22 25 34 38 38 38 39 41 37 34 38 39 39 37 36 30 30 31 31 31 33
30 29 29 30 27 29 28 28 28 32 33 33 33 32 31 31 25 28 26 23 23 24 21 18 24 32 35 37 37 36 36 32 31 34 33 31 30 30 29 25 30 30 30 31
29 26 21 25 27 31 32 33 33 33 34 33 32 31 30 26 21 26 23 20 20 25 18 20 26 33 34 34 34 34 30 29 30 33 31 30 29 28 29 30 27 29 33 31
27 25 19 29 31 29 31 32 32 34 33 32 31 19 16 17 17 15 19 15 14 18 17 23 28 33 33 33 32 32 32 31 32 32 32 32 28 28 31 29 27 29 31 30
21 18 30 19 26 20 32 29 32 34 32 27 21 17 19 20 11 13 21 16 19 19 23 25 30 32 32 32 31 29 30 32 32 32 32 32 31 28 24 26 31 28 27 25

GFSNW_sfc_temp_012.txt.gz
Temp
54 54 54 53 53 53 56 51 47 57 56 49 39 42 49 51 52 56 53 51 49 46 45 43 43 43 47 52 49 44 44 37 31 39 45 46 43 40 39 27 29 28 24 31
53 53 52 50 51 53 54 50 49 56 57 38 33 47 50 52 52 51 51 49 50 49 44 40 45 46 49 51 48 43 44 35 28 36 41 44 41 41 40 34 31 32 28 31
53 52 50 51 52 53 52 49 42 47 48 45 47 46 46 48 53 52 51 49 51 48 44 46 41 43 49 50 49 48 48 38 35 28 35 38 35 39 40 37 31 32 32 37
52 50 50 52 53 52 54 47 43 46 38 41 45 47 48 47 46 52 51 48 48 45 38 39 39 44 46 48 49 46 44 35 36 38 40 39 39 38 39 35 36 33 38 35
51 49 50 50 52 53 51 47 46 45 42 47 46 42 45 47 48 49 46 46 46 46 41 43 39 43 40 42 44 40 41 32 32 32 35 35 32 37 38 37 37 36 37 36
50 49 49 50 52 54 50 46 47 48 38 39 38 38 46 48 50 49 51 49 45 39 46 47 46 48 47 44 40 39 37 30 29 26 31 31 27 34 35 37 39 38 33 40
49 49 50 50 52 53 51 48 47 41 34 32 39 46 48 47 47 47 49 49 42 48 51 49 46 44 42 40 40 43 32 28 28 23 32 19 39 42 44 39 41 42 40 40
50 49 50 51 52 53 52 48 48 40 33 36 40 46 47 46 47 45 47 48 47 49 44 35 31 31 32 32 38 37 37 32 29 29 29 31 40 41 37 35 36 41 39 41
52 52 51 51 52 52 53 50 47 45 37 38 48 46 44 37 35 37 41 47 47 45 31 30 23 24 30 32 35 38 35 30 27 28 26 23 35 41 43 42 30 41 44 45
51 52 52 52 52 52 53 51 50 48 38 43 47 41 41 44 38 37 36 42 39 41 31 26 23 26 33 28 25 24 27 30 26 27 27 30 39 43 44 30 34 41 45 44
51 51 52 52 52 52 53 50 52 50 40 44 49 50 46 44 41 36 41 40 36 35 33 28 29 20 29 29 34 30 31 26 22 26 26 24 42 42 37 43 41 43 41 39
50 51 51 51 52 52 53 50 52 51 47 47 48 50 51 52 51 45 39 42 39 37 33 32 26 25 29 30 28 36 30 36 33 36 31 41 46 46 46 45 42 41 39 43
50 50 51 51 51 50 52 49 49 47 40 44 46 47 52 55 54 54 42 35 45 40 41 33 30 33 31 32 32 30 38 42 35 37 41 42 46 49 48 44 43 43 42 40
49 49 50 50 51 52 52 49 48 47 41 34 41 49 49 53 54 52 52 49 46 43 38 33 33 34 41 34 39 37 39 40 37 37 44 44 45 43 43 42 43 42 42 42
50 50 50 50 51 51 50 50 51 51 47 37 38 45 49 51 51 51 49 48 45 40 37 34 35 34 36 34 35 34 43 40 36 37 46 44 45 43 44 42 41 43 42 42
49 49 50 50 50 51 52 47 49 51 50 40 36 43 42 46 48 47 45 46 45 42 40 35 38 44 39 33 33 44 46 48 49 45 49 47 44 43 44 42 43 44 41 41
48 49 49 49 50 52 49 45 46 50 52 37 36 35 37 41 43 42 41 42 41 43 40 36 37 38 42 33 36 45 48 47 47 48 47 42 42 40 44 44 43 42 42 42
48 48 48 49 49 49 46 46 49 51 45 40 35 35 36 41 34 34 39 35 37 40 40 36 35 37 35 34 39 42 44 46 46 43 42 40 44 44 43 42 40 38 36 36
48 48 48 48 46 42 44 48 48 47 44 37 33 34 33 41 37 35 33 34 33 37 33 34 36 33 34 36 37 38 40 39 38 39 41 43 40 39 38 38 37 34 33 33
48 46 42 36 39 47 47 44 40 39 36 37 33 36 34 41 33 33 34 33 32 31 33 35 32 33 39 38 38 36 37 38 39 37 36 35 34 35 35 35 35 33 32 32
43 38 35 42 47 43 38 34 34 34 33 33 35 34 34 38 34 33 33 32 32 26 25 30 28 28 32 36 36 38 38 39 38 38 38 39 38 36 34 33 33 31 30 29
43 43 44 42 40 35 34 32 32 32 30 32 32 34 36 34 39 34 32 30 29 24 28 27 23 27 34 38 38 38 37 38 38 39 38 37 37 36 34 33 33 31 28 31
43 38 35 37 33 31 30 26 29 29 32 33 33 32 33 34 35 32 30 24 22 25 21 21 23 31 37 36 36 36 37 35 33 35 36 35 33 32 28 30 30 28 29 31
34 31 30 28 28 29 29 30 27 29 33 33 33 32 31 31 29 28 23 24 23 22 15 16 22 32 34 34 34 33 34 29 28 32 32 30 28 29 29 27 27 25 27 30
30 29 24 27 28 29 32 32 33 33 34 33 32 31 29 27 23 27 24 23 20 22 17 17 25 32 33 33 34 33 29 27 27 32 29 27 27 26 28 30 27 26 25 26
28 25 20 27 28 28 30 32 32 34 33 32 29 21 20 20 21 20 21 18 15 16 15 21 26 32 32 33 31 31 31 30 31 31 30 29 26 26 30 30 28 28 27 27
23 20 28 22 24 23 25 32 32 34 32 27 25 18 19 21 14 16 18 12 16 18 21 24 29 32 32 32 31 28 29 30 30 30 29 29 29 25 24 25 30 29 28 25

GFSNW_sfc_temp_015.txt.gz
Temp
53 54 51 51 51 53 56 52 50 58 58 50 43 45 52 52 54 57 55 54 52 50 49 47 47 47 51 53 55 49 49 43 39 46 50 52 50 46 45 38 35 37 34 38
53 51 51 51 52 53 55 52 52 57 58 41 37 50 52 53 54 52 53 51 52 52 47 44 48 49 52 53 54 50 50 41 36 42 47 50 47 47 43 41 38 36 32 39
52 50 51 51 52 53 54 51 44 49 49 48 48 48 48 49 54 52 52 52 53 50 46 48 46 48 52 52 52 48 50 42 40 37 42 45 41 43 44 43 35 37 38 43
50 50 50 50 52 52 55 48 45 48 41 45 48 49 50 49 48 53 53 51 51 48 42 44 44 48 50 51 50 50 49 40 41 42 44 42 42 42 42 40 42 36 42 43
50 50 50 50 52 52 52 49 47 46 44 48 49 43 48 48 50 51 50 48 50 50 46 47 44 48 47 47 50 47 45 39 38 35 39 39 36 41 41 41 42 41 42 41
49 50 50 50 52 54 52 48 49 50 39 41 42 42 49 50 51 50 52 51 48 43 50 53 53 51 48 50 48 43 42 37 33 32 35 35 32 40 41 43 45 44 39 48
50 49 50 51 52 53 53 49 49 43 37 37 42 48 50 49 50 48 51 52 45 52 54 52 49 46 45 46 43 46 34 34 32 32 32 29 44 48 48 44 46 46 45 46
50 50 51 51 52 52 52 49 50 43 33 38 42 48 47 48 48 47 50 50 50 52 48 39 35 36 35 36 39 40 41 34 31 30 32 36 43 46 45 42 43 49 46 48
52 51 51 51 52 52 53 50 48 47 37 41 49 47 47 41 41 42 44 49 49 47 36 35 32 32 35 37 38 40 37 35 35 31 28 27 40 47 49 48 38 48 48 47
51 52 51 51 52 53 54 52 51 50 40 46 49 45 45 46 43 41 41 45 43 45 34 32 33 35 36 35 29 29 30 32 31 32 29 34 44 46 48 34 38 45 47 48
51 51 51 51 51 52 54 53 52 51 41 47 51 52 47 46 45 40 43 43 40 37 34 33 33 32 35 35 38 34 36 33 30 30 27 27 47 46 40 46 47 48 48 46
50 51 51 51 51 50 53 52 52 51 48 49 51 53 55 55 53 47 42 45 42 41 35 33 32 32 30 33 34 40 35 39 37 37 37 46 48 49 51 49 44 45 44 41
50 50 51 51 51 52 53 51 50 48 40 45 49 50 54 55 56 56 46 39 47 43 45 37 35 34 36 32 32 35 41 44 38 39 46 48 49 53 47 47 43 43 43 43
49 49 50 50 51 51 52 51 49 48 42 34 43 50 51 56 55 55 54 50 46 44 41 35 34 34 43 35 40 39 44 42 39 39 46 48 48 46 45 43 43 43 45 44
49 50 50 51 51 51 51 50 51 51 49 37 38 47 50 50 52 52 51 49 45 42 37 34 35 38 37 37 36 35 44 42 38 39 49 46 44 43 44 42 43 45 44 44
49 50 50 51 50 51 50 45 49 51 50 39 35 43 43 46 49 49 48 48 46 44 40 36 39 45 41 33 34 43 48 50 51 47 49 46 43 44 45 45 45 46 45 45
49 49 49 50 50 53 49 45 48 51 51 38 35 37 39 43 43 42 43 44 45 45 40 36 38 39 42 33 34 45 46 47 49 48 47 41 43 42 45 46 46 45 45 45
48 49 49 49 49 49 47 48 49 51 46 41 35 35 36 42 37 36 40 38 40 41 40 36 36 38 35 34 39 41 43 45 43 43 45 43 44 45 45 45 44 42 41 41
49 48 49 48 46 43 45 48 48 48 46 38 34 34 34 41 37 36 36 37 34 38 34 35 37 34 34 36 37 38 39 40 40 42 43 43 42 42 42 42 42 40 40 40
48 47 43 36 39 47 47 45 40 38 37 37 34 36 35 41 35 34 35 34 33 32 34 37 33 33 38 38 39 40 41 43 43 39 38 39 39 39 39 39 40 39 38 38
43 38 36 42 47 43 39 34 34 34 33 34 35 34 35 38 34 33 34 33 33 29 31 32 31 31 36 38 39 41 41 42 42 43 42 41 39 38 37 37 37 36 35 34
43 43 44 42 40 35 33 32 32 32 32 33 33 34 36 34 39 34 32 31 31 26 30 29 27 32 37 39 40 40 40 41 41 41 39 39 38 37 36 35 35 34 34 32
43 39 35 36 33 31 30 28 30 30 32 33 33 32 34 34 35 32 31 27 26 29 26 25 28 34 38 39 39 39 40 38 35 38 38 37 37 35 32 32 32 31 32 33
35 34 30 30 29 30 30 29 30 32 33 33 33 32 32 31 30 29 27 27 26 24 21 22 29 36 36 37 37 37 38 30 30 34 35 32 30 30 30 28 29 28 29 32
31 32 26 28 29 31 32 33 33 33 34 34 32 31 31 28 27 28 26 24 22 23 23 26 31 34 35 36 37 37 31 28 29 34 32 29 28 28 29 31 31 31 28 28
31 27 26 27 28 28 30 32 32 34 33 32 31 26 26 25 25 23 22 21 18 24 24 28 31 34 34 35 34 33 33 32 33 33 32 31 28 27 31 30 30 29 28 28
24 22 27 25 25 28 29 33 33 35 33 28 26 23 24 24 21 21 23 19 23 25 28 29 31 34 34 34 33 29 30 32 32 32 32 32 31 28 27 28 33 33 32 30

GFSNW_sfc_temp_021.txt.gz
Temp
52 52 52 52 53 54 58 74 67 76 77 69 71 64 67 61 69 71 68 70 67 64 64 61 60 59 63 66 67 61 63 59 51 58 64 66 64 60 59 48 45 49 45 47
52 52 51 52 52 54 80 74 72 77 74 59 59 66 65 69 67 68 67 64 67 68 63 56 61 61 63 66 65 61 63 56 49 54 59 62 58 61 59 55 50 44 40 47
51 51 51 51 52 54 73 76 61 71 74 74 69 64 64 62 67 66 68 66 69 65 62 65 59 60 62 63 64 51 58 59 52 47 53 60 54 58 60 56 44 46 48 54
51 51 51 51 52 54 72 77 67 69 60 65 69 69 67 63 61 67 70 65 66 63 56 60 58 62 61 62 52 61 61 50 56 57 59 59 57 56 57 54 55 46 51 54
51 51 51 52 53 53 77 71 68 71 69 69 68 58 65 65 63 66 63 64 66 66 58 62 58 62 62 60 62 61 61 50 49 47 57 57 52 57 57 57 56 56 56 54
51 51 52 52 52 55 78 74 74 73 54 65 63 63 65 66 66 64 69 68 65 59 64 67 67 66 66 64 61 56 54 51 46 41 50 47 39 51 55 56 58 56 48 57
51 51 52 52 52 55 78 74 76 63 56 62 65 65 67 66 66 62 67 69 61 63 70 69 67 65 62 62 60 61 49 48 42 37 38 33 53 63 62 57 58 61 60 61
51 51 52 51 52 54 75 74 74 63 42 65 64 66 66 65 66 64 63 62 66 71 66 55 45 46 39 47 57 57 58 49 38 35 40 47 53 55 54 51 51 61 59 60
52 52 52 52 52 54 73 69 70 70 48 55 69 65 66 60 59 59 57 63 67 66 57 48 37 42 49 49 49 54 52 51 45 38 32 32 50 59 60 59 44 59 58 56
53 52 52 52 51 53 71 68 67 73 59 66 68 63 63 69 65 60 60 59 56 64 47 39 40 46 53 47 39 36 37 38 36 37 34 43 58 59 60 40 44 56 55 50
52 52 52 50 50 52 66 68 67 69 61 63 66 67 65 65 67 55 60 58 57 53 40 40 44 39 49 48 54 45 41 37 34 38 33 31 61 58 43 52 55 53 52 48
52 52 52 50 51 52 55 71 70 71 68 63 66 66 67 67 69 69 62 62 60 60 51 45 44 36 38 42 42 60 46 51 47 48 47 61 61 58 60 58 55 53 49 48
51 52 52 52 52 53 57 71 69 72 57 63 65 63 66 71 69 71 61 61 67 63 65 53 45 36 48 36 44 49 57 62 50 49 57 58 58 59 55 56 52 51 49 54
50 50 51 52 52 53 57 70 68 69 57 40 57 65 64 66 69 69 69 67 64 65 62 42 38 39 58 44 52 51 56 56 52 50 57 56 55 51 49 51 50 52 55 55
50 50 50 52 53 54 65 69 67 68 64 48 54 62 62 65 66 66 67 65 62 58 45 38 41 54 51 50 47 47 58 54 47 43 53 47 46 47 48 50 53 54 53 54
49 50 51 51 52 53 70 64 69 69 69 51 45 60 58 62 64 63 63 64 60 62 53 43 55 60 53 38 38 54 60 62 62 55 55 53 48 49 54 53 53 55 54 55
49 49 50 50 50 64 63 61 60 56 70 49 44 48 55 57 60 60 60 56 55 55 54 46 49 52 53 38 37 54 57 59 58 57 52 45 49 51 54 54 55 55 56 57
49 49 49 49 49 51 57 61 54 58 62 55 42 41 45 55 46 44 55 47 49 50 49 42 44 48 44 38 49 54 56 54 52 51 52 53 54 54 55 56 55 53 52 52
49 49 49 52 51 50 56 49 54 63 59 47 38 37 36 53 44 44 45 49 39 45 37 38 42 38 36 46 50 51 51 51 51 54 54 54 51 51 53 53 52 50 49 49
48 49 46 38 43 48 49 51 48 49 50 48 38 50 39 51 40 39 40 40 40 36 39 42 34 35 43 50 52 53 53 51 51 48 47 48 47 49 50 49 50 49 47 45
45 39 36 44 47 46 42 36 38 37 35 37 40 41 40 48 40 37 40 35 36 34 37 37 36 38 46 50 49 51 52 53 53 53 52 52 51 49 48 47 46 44 44 42
44 44 45 44 40 36 36 34 34 34 35 35 34 36 41 38 44 36 34 34 36 32 44 33 32 45 50 49 50 51 52 53 51 52 50 51 50 50 46 44 44 43 40 36
44 38 34 35 33 31 32 31 33 34 34 35 34 33 35 35 38 33 34 33 34 42 32 34 44 48 50 51 51 50 53 49 46 49 51 50 48 46 41 39 40 36 39 40
36 33 31 32 31 33 35 36 37 36 36 36 35 33 35 35 33 35 33 34 37 30 29 32 46 48 50 51 51 50 48 38 42 44 45 43 39 39 37 34 34 33 35 38
36 35 31 32 34 34 34 35 36 36 39 39 38 38 39 35 32 35 32 29 29 33 35 41 47 48 49 47 46 47 44 36 38 45 42 35 35 36 37 38 38 38 35 34
40 35 32 34 34 33 33 33 34 38 37 38 39 34 33 32 33 30 30 30 31 36 40 45 46 44 44 44 45 45 45 43 44 44 43 41 36 34 39 39 36 34 33 33
34 33 36 35 35 34 35 36 36 39 36 33 35 31 30 32 31 29 37 33 37 41 43 46 45 43 44 45 45 38 41 42 43 43 43 42 41 37 36 34 41 42 39 34

GFSNW_sfc_temp_024.txt.gz
Temp
52 52 52 52 52 55 61 73 62 75 77 65 68 63 69 61 69 72 70 72 69 66 66 63 62 61 62 68 68 61 63 60 49 58 66 67 65 60 59 44 44 46 43 45
51 52 52 52 52 54 74 70 69 76 75 58 60 68 68 71 69 70 69 66 69 70 65 57 63 61 65 68 65 58 62 56 47 52 58 63 59 62 60 56 47 41 37 44
51 51 51 52 52 55 68 72 60 69 71 72 67 64 64 63 70 69 71 69 70 67 63 66 60 59 63 65 63 52 58 59 53 45 53 59 54 58 61 57 42 43 44 50
51 51 51 52 53 54 68 73 66 70 59 64 69 69 68 64 61 69 71 66 67 65 57 61 60 62 60 63 54 62 62 51 56 57 59 59 57 56 57 54 54 44 50 53
51 51 52 53 53 53 70 68 68 71 69 69 68 60 66 65 67 67 65 64 67 67 60 62 59 63 62 60 62 61 62 48 48 46 58 57 51 55 55 56 57 56 54 54
51 51 52 52 52 55 75 75 76 72 58 66 64 63 66 67 68 66 71 70 66 57 62 65 66 67 67 66 61 58 55 49 44 39 47 45 38 49 56 57 59 56 46 56
51 52 52 52 52 54 73 74 75 63 57 64 65 68 70 68 67 64 70 71 60 65 71 68 66 64 63 64 62 63 49 47 41 36 37 32 54 62 61 56 58 60 59 60
52 52 52 52 52 54 74 75 72 63 41 64 67 67 67 67 67 66 63 64 69 71 67 54 45 44 40 48 59 58 60 47 37 35 39 46 52 56 54 50 49 59 57 56
53 52 52 51 51 53 72 67 70 69 49 58 70 67 66 61 60 59 58 65 70 68 55 45 38 41 49 47 49 56 55 51 43 37 31 32 49 59 61 59 41 56 55 52
53 52 52 50 51 53 68 67 68 70 60 68 68 64 62 68 63 58 59 59 57 65 46 37 42 45 55 45 39 36 37 39 37 37 34 41 56 60 60 40 41 52 52 50
53 52 51 50 52 53 63 67 69 68 61 65 69 70 67 67 66 53 60 57 57 52 38 40 44 38 46 48 54 42 38 36 33 38 34 32 61 58 42 50 54 53 51 50
53 53 52 52 52 53 55 69 71 72 67 63 69 67 68 68 68 67 62 62 59 58 49 46 45 36 37 40 42 61 45 48 45 45 43 56 58 55 55 54 51 49 49 51
53 54 52 52 53 54 56 70 68 71 60 62 63 62 67 70 69 71 60 60 67 63 64 50 42 34 45 35 43 48 57 62 48 49 56 59 56 55 54 53 50 51 52 54
50 50 51 51 52 53 55 69 69 68 56 38 57 68 65 68 70 70 69 66 65 64 58 41 38 36 57 44 50 49 55 58 53 51 57 56 52 52 51 52 52 52 56 55
49 50 51 52 53 53 65 69 69 69 63 45 54 64 65 67 68 67 68 65 62 56 44 37 39 51 51 47 46 45 56 52 46 44 53 53 50 51 52 51 52 54 53 53
49 50 51 51 51 51 67 62 68 68 69 50 42 61 60 64 65 65 64 64 62 60 52 43 52 62 52 37 39 53 60 61 61 54 55 53 52 51 54 54 54 55 54 54
49 50 50 50 51 62 59 57 57 53 65 48 41 47 56 59 63 61 59 59 55 56 53 45 47 51 53 38 38 54 58 61 60 58 53 47 51 50 55 55 55 55 55 55
49 49 49 49 49 51 58 58 55 56 61 54 42 42 46 56 47 45 55 47 48 49 48 43 44 49 42 38 49 55 58 59 55 54 55 52 52 55 55 56 54 52 51 51
49 49 49 54 55 54 57 50 51 64 58 47 37 37 36 54 44 43 45 48 38 45 38 39 43 38 36 45 50 54 56 53 52 54 55 54 53 52 52 52 51 49 48 48
49 50 46 38 43 49 49 56 51 51 51 48 39 49 40 50 41 38 39 40 38 35 38 42 34 35 46 52 55 56 54 54 53 48 47 49 47 49 49 49 50 47 45 44
45 40 36 44 47 48 44 40 40 40 37 39 42 45 41 49 39 37 41 36 37 34 37 37 35 36 45 51 51 54 53 52 53 54 53 53 51 48 47 46 44 41 41 39
44 43 45 43 40 36 38 34 34 34 36 36 35 36 43 40 48 40 36 34 35 32 42 34 33 43 51 50 50 51 52 53 52 52 51 51 50 49 44 42 40 40 37 33
43 38 35 36 33 32 32 31 32 33 33 34 34 33 35 36 38 33 33 32 32 38 32 31 40 47 50 51 51 51 51 45 44 49 50 49 47 44 39 37 38 34 37 38
36 33 32 32 32 33 33 33 34 35 36 34 34 33 34 33 33 33 32 33 35 31 29 32 43 47 50 51 51 50 45 36 40 41 42 40 37 36 35 33 33 31 33 35
37 35 31 32 33 34 34 34 35 34 36 35 34 34 35 33 32 33 32 30 29 31 32 35 42 44 45 43 46 45 41 34 36 42 39 33 34 34 36 36 36 37 33 32
40 35 33 34 34 33 33 33 33 36 36 37 37 33 33 32 33 31 30 30 29 33 37 42 42 41 40 41 41 41 42 40 40 40 40 38 35 33 37 38 35 33 33 33
33 33 37 35 34 34 34 36 36 39 35 33 34 31 29 33 31 30 34 32 34 39 41 40 40 40 41 42 41 37 39 40 40 40 40 39 38 35 35 34 38 38 36 33

GFSNW_sfc_temp_027.txt.gz
Temp
52 51 52 52 52 55 59 58 50 63 65 52 50 48 61 58 65 67 65 63 63 59 59 56 56 53 56 63 61 54 55 49 36 50 58 61 56 52 51 32 36 32 30 35
51 51 52 52 52 54 59 55 55 64 62 42 41 57 63 65 63 63 62 61 63 63 57 50 54 54 59 61 56 50 53 46 33 42 50 56 52 56 54 46 36 34 25 32
51 51 51 52 53 55 59 56 47 54 56 57 54 55 57 58 64 63 66 63 63 58 55 59 51 52 58 58 57 52 53 51 42 34 43 49 45 51 52 45 30 33 34 43
51 51 51 53 53 55 60 58 53 56 44 50 54 58 59 57 56 62 64 59 60 57 47 52 50 54 54 57 53 55 52 42 46 48 51 52 50 49 50 47 45 35 40 46
51 51 52 52 52 53 58 56 56 57 53 58 55 52 57 57 60 60 58 57 61 58 51 52 50 54 53 51 54 52 53 37 38 37 48 48 43 47 47 49 49 48 47 46
51 51 52 52 52 54 57 61 62 57 49 52 49 52 57 60 60 59 63 59 53 47 54 56 55 56 55 56 52 49 46 37 32 30 40 36 31 41 49 50 51 47 37 46
52 53 52 52 52 54 60 59 59 49 43 49 54 61 61 59 61 56 58 58 51 57 61 57 54 52 53 56 54 54 40 37 31 25 29 21 45 54 53 50 51 51 50 49
53 52 52 51 52 53 60 59 58 47 36 52 57 59 57 57 56 54 55 58 59 61 55 40 39 35 36 43 52 51 50 35 27 28 27 37 46 51 47 43 42 49 47 47
52 52 50 50 52 54 60 57 58 53 42 45 62 57 56 48 47 48 52 59 59 57 39 34 29 29 38 37 44 47 47 39 31 25 23 19 39 52 56 52 31 47 47 44
52 51 49 50 52 53 59 57 60 58 47 55 57 52 52 56 51 45 49 50 48 53 33 33 31 32 45 34 33 29 29 33 29 23 23 31 47 53 54 33 34 45 46 44
52 52 51 52 52 53 58 57 60 57 48 53 58 58 55 56 51 42 50 45 44 37 36 33 32 30 34 36 42 36 31 28 27 32 30 23 53 51 39 42 45 45 44 43
53 52 52 52 52 53 53 56 61 61 54 52 59 59 61 59 57 54 52 49 49 46 38 34 35 33 35 33 30 47 35 38 33 36 34 46 50 48 48 48 45 44 44 46
54 51 50 50 52 53 54 57 58 57 48 51 53 52 59 63 61 61 49 47 56 52 50 40 40 33 36 29 32 37 46 51 37 40 48 48 47 48 48 48 47 48 47 50
50 50 50 50 52 52 56 56 57 54 48 37 47 62 56 63 62 63 60 57 56 52 46 38 37 33 45 34 39 36 44 48 45 40 47 47 49 48 47 47 49 49 50 49
49 50 50 51 50 52 57 58 58 58 53 39 40 56 59 62 61 60 60 56 52 45 38 35 35 35 38 33 35 34 48 45 37 33 47 46 43 45 48 47 48 49 48 47
50 50 51 51 50 52 57 51 56 55 56 44 36 51 53 57 58 57 57 54 52 48 41 36 41 51 41 35 34 46 52 55 53 45 48 47 46 48 52 51 49 50 49 48
49 50 51 50 50 54 51 49 51 49 54 40 36 40 48 52 54 49 52 50 47 47 42 37 36 38 43 34 34 46 51 54 50 51 48 43 47 45 51 51 51 50 49 47
49 49 50 50 48 50 51 51 51 50 50 44 36 37 37 50 38 39 45 39 44 45 41 39 37 39 36 35 42 48 52 52 50 50 52 48 49 51 50 50 48 45 43 43
49 49 51 53 50 46 49 49 49 55 50 38 34 32 31 45 39 38 39 43 35 41 35 36 39 34 35 41 44 47 49 48 47 50 52 50 49 48 47 46 44 41 40 40
49 50 47 38 42 48 50 51 42 42 43 42 34 38 36 43 36 35 35 34 34 33 35 39 33 34 41 45 47 48 50 51 50 45 43 44 44 43 43 43 41 40 38 38
45 39 36 43 48 46 41 36 38 38 36 37 38 37 38 41 34 34 36 33 34 32 31 34 33 32 39 45 46 47 49 50 49 49 48 48 45 42 41 39 36 36 34 34
44 43 44 43 40 36 36 34 34 35 34 34 34 35 39 36 42 35 34 34 33 31 37 32 30 34 43 45 46 47 48 48 49 49 47 45 43 41 37 36 35 35 33 27
43 39 35 37 32 32 32 31 31 32 32 34 33 33 34 35 37 33 33 32 31 34 31 28 29 43 45 46 44 43 44 40 40 43 43 42 41 39 35 32 34 28 32 33
35 33 30 32 30 31 31 32 32 33 33 33 33 32 33 32 33 32 31 31 32 29 24 23 34 41 45 45 43 41 38 35 36 37 37 36 33 32 30 29 28 25 29 31
34 34 30 30 32 32 32 33 34 33 34 34 33 33 33 32 31 31 30 28 27 28 29 31 34 37 39 38 39 38 35 30 33 36 34 29 29 30 32 32 32 32 29 28
35 34 31 32 32 32 32 32 32 35 34 34 34 32 31 30 30 28 29 28 26 29 32 34 35 36 36 36 37 36 37 36 36 35 35 34 29 27 33 33 30 29 29 28
34 32 34 33 33 33 33 34 34 36 34 32 32 29 27 30 28 27 30 29 30 32 32 33 36 36 36 36 37 34 36 36 35 35 35 34 34 29 29 30 34 33 32 28

GFSNW_sfc_temp_030.txt.gz
Temp
51 51 52 52 52 54 57 54 48 60 61 50 45 46 57 59 61 64 62 60 58 55 55 52 49 50 53 57 56 51 51 45 35 46 54 56 52 49 46 31 36 30 29 33
51 51 52 52 52 54 56 52 51 60 59 40 37 52 59 61 59 59 59 57 59 58 54 47 50 51 55 57 54 49 50 43 32 40 47 52 48 51 49 42 34 34 24 32
51 51 51 52 51 54 55 52 44 51 52 50 51 51 54 54 60 60 61 59 60 56 52 54 49 49 55 56 54 50 52 46 40 34 40 45 42 47 47 42 29 32 32 40
50 50 51 52 53 54 56 53 49 52 43 47 51 53 55 54 53 59 60 57 57 54 45 49 46 50 51 55 52 53 50 40 43 44 46 46 45 44 44 43 41 34 39 40
50 50 52 52 53 53 56 53 53 51 49 54 53 49 53 54 56 57 54 53 55 54 48 50 47 50 48 48 50 49 48 36 37 38 43 43 40 44 43 44 45 45 43 40
51 52 52 51 52 54 58 58 58 54 46 48 47 48 54 56 58 57 57 54 49 46 51 51 50 51 53 53 50 45 43 35 31 30 36 36 30 40 45 46 46 45 37 42
52 52 51 51 52 54 60 57 55 48 41 47 50 56 57 55 56 52 55 55 49 54 57 53 53 50 51 52 49 50 38 33 28 24 27 21 42 50 50 44 44 46 45 44
52 51 49 49 50 53 56 57 55 47 35 47 53 55 52 52 52 50 51 54 55 56 51 38 38 34 37 40 46 45 45 32 27 22 25 34 43 47 46 43 40 46 44 44
52 49 50 51 52 53 56 55 56 51 42 44 55 51 52 46 44 45 49 56 56 50 35 32 29 29 36 35 41 45 43 36 29 25 21 19 37 48 52 49 32 46 45 42
51 49 51 52 52 53 57 55 57 55 45 50 53 49 50 51 46 42 46 48 47 48 30 32 26 31 42 32 31 28 27 26 26 17 17 29 43 50 52 32 35 44 44 42
51 51 51 51 52 52 57 55 57 56 45 50 54 55 52 51 48 40 47 45 42 37 32 28 33 25 33 33 39 35 32 28 25 24 18 24 48 48 39 41 42 43 43 42
50 48 49 50 52 52 55 55 57 57 52 51 56 56 56 55 55 50 47 47 45 43 36 34 36 27 33 31 30 43 36 37 32 36 34 44 47 47 46 46 43 43 42 43
48 49 49 50 52 53 57 54 54 53 45 49 51 51 58 61 57 58 48 44 52 48 45 38 32 28 34 30 32 35 45 47 35 38 45 46 46 45 45 46 44 47 47 47
49 49 49 49 50 53 56 54 54 50 44 36 45 58 55 61 60 59 57 54 50 47 42 36 36 30 41 31 37 34 42 45 42 37 42 44 45 44 45 45 47 49 49 49
50 50 50 50 50 52 56 54 53 53 51 39 39 52 56 58 58 57 56 53 49 42 37 34 34 32 36 34 32 34 45 44 36 34 45 44 43 44 46 46 48 49 47 44
50 51 50 50 51 53 54 49 53 52 51 41 36 46 49 53 55 53 52 51 48 45 39 35 40 45 38 34 34 43 48 51 49 46 47 47 44 45 50 50 49 48 45 43
49 51 49 48 51 51 49 47 50 49 50 39 36 37 45 49 50 46 47 47 45 45 38 36 35 35 40 35 33 44 48 50 48 48 46 42 43 44 50 50 48 47 45 43
50 50 50 48 50 50 49 49 48 49 46 40 34 32 36 46 37 36 43 37 41 42 40 39 37 37 35 35 41 45 50 48 46 46 46 46 49 50 48 48 46 43 41 40
50 50 51 50 48 44 47 48 47 51 47 35 32 32 32 43 39 37 36 40 33 39 34 35 36 34 33 40 42 44 46 45 44 46 48 49 48 46 45 45 43 40 39 38
49 49 45 39 42 48 48 47 40 39 41 38 33 37 34 41 34 34 35 34 33 33 34 39 33 34 39 41 44 45 46 47 48 44 41 42 41 41 41 41 40 39 38 36
46 40 37 43 48 44 40 37 34 37 35 36 36 36 37 39 34 34 34 32 33 31 30 33 32 32 37 42 42 44 47 47 47 47 46 45 43 41 40 38 36 35 34 34
45 43 45 43 39 36 35 34 34 34 34 34 34 35 38 36 39 34 34 33 32 29 35 33 29 35 40 41 42 44 45 45 43 43 41 42 42 40 37 35 34 34 32 27
43 40 35 37 33 33 33 32 31 32 32 34 33 33 33 35 37 33 33 32 31 34 32 29 30 40 41 41 42 42 43 40 39 42 42 41 40 38 35 33 34 28 31 32
36 34 31 32 30 31 31 32 32 33 33 33 33 32 33 32 33 32 31 32 32 29 21 21 33 38 40 42 41 40 37 33 36 36 37 36 32 31 29 26 26 23 28 31
34 31 29 28 31 32 32 33 33 33 34 34 33 33 33 32 31 31 29 27 26 27 27 31 32 35 36 36 37 36 34 30 32 35 33 28 27 28 31 31 30 31 27 26
34 34 30 31 32 32 32 32 32 34 34 34 33 31 31 27 30 28 28 27 24 27 31 32 35 35 36 35 36 35 36 36 35 35 34 33 27 25 32 32 30 28 27 27
34 31 33 32 32 32 32 33 33 36 33 32 31 26 25 30 25 24 29 27 30 31 32 34 34 35 35 35 36 34 35 35 35 34 34 34 33 28 27 29 34 33 32 29